KQA607 HKMO-HKJK

Flight info

Callsign KQA607
Flight time 0h 39m
Altitude 28000
Route UTIKU UQ315 UTEPI
Aircraft B738/M-SDE1E2E3FGHIJ2J3J4J5M1RWXYZ/LB1D1

Departure

Time 2026-04-30 11:54
Airport Moi International Airport (HKMO)

Arrival

Time 2026-04-30 12:34
Airport Jomo Kenyatta International Airport (HKJK)
Time Latitude Longitude Altitude Speed Heading
2026-04-30 11:34 -4.03070 39.60273 214 ft 0 kts 119°
2026-04-30 11:46 -4.03067 39.60269 204 ft 1 kts 118°
2026-04-30 11:46 -4.03060 39.60254 211 ft 2 kts 117°
2026-04-30 11:46 -4.03052 39.60240 214 ft 2 kts 116°
2026-04-30 11:46 -4.03046 39.60226 214 ft 2 kts 111°
2026-04-30 11:47 -4.03041 39.60211 213 ft 2 kts 89°
2026-04-30 11:47 -4.03047 39.60197 208 ft 1 kts 34°
2026-04-30 11:47 -4.03051 39.60194 215 ft 0 kts 30°
2026-04-30 11:47 -4.03044 39.60198 207 ft 2 kts 28°
2026-04-30 11:48 -4.03030 39.60206 211 ft 2 kts 30°
2026-04-30 11:49 -4.03008 39.60218 207 ft 10 kts 24°
2026-04-30 11:49 -4.02950 39.60215 213 ft 14 kts 326°
2026-04-30 11:49 -4.02892 39.60124 204 ft 14 kts 299°
2026-04-30 11:50 -4.02838 39.60031 211 ft 17 kts 313°
2026-04-30 11:50 -4.02766 39.60030 209 ft 17 kts 30°
2026-04-30 11:50 -4.02660 39.60090 213 ft 23 kts 29°
2026-04-30 11:50 -4.02513 39.60173 211 ft 27 kts 29°
2026-04-30 11:51 -4.02379 39.60247 204 ft 23 kts 29°
2026-04-30 11:51 -4.02187 39.60356 204 ft 23 kts 30°
2026-04-30 11:51 -4.02092 39.60408 204 ft 23 kts 29°
2026-04-30 11:51 -4.01957 39.60484 208 ft 24 kts 30°
2026-04-30 11:52 -4.01801 39.60571 206 ft 25 kts 29°
2026-04-30 11:52 -4.01655 39.60653 204 ft 23 kts 29°
2026-04-30 11:52 -4.01514 39.60726 204 ft 22 kts 24°
2026-04-30 11:52 -4.01380 39.60714 211 ft 18 kts 327°
2026-04-30 11:53 -4.01350 39.60626 204 ft 14 kts 233°
2026-04-30 11:53 -4.01374 39.60609 210 ft 2 kts 207°
2026-04-30 11:53 -4.01441 39.60573 206 ft 32 kts 208°
2026-04-30 11:53 -4.01880 39.60328 204 ft 109 kts 209°
2026-04-30 11:54 -4.02746 39.59862 246 ft 168 kts 206°
2026-04-30 11:54 -4.03846 39.59270 779 ft 186 kts 207°
2026-04-30 11:54 -4.04980 39.58673 1654 ft 180 kts 206°
2026-04-30 11:54 -4.05860 39.57767 2430 ft 197 kts 242°
2026-04-30 11:55 -4.06004 39.56501 2768 ft 221 kts 277°
2026-04-30 11:55 -4.05341 39.55107 3466 ft 216 kts 296°
2026-04-30 11:55 -4.04714 39.53736 4023 ft 223 kts 281°
2026-04-30 11:55 -4.04301 39.52145 4163 ft 249 kts 280°
2026-04-30 11:56 -4.03846 39.50449 4653 ft 255 kts 280°
2026-04-30 11:56 -4.03370 39.48715 5217 ft 268 kts 281°
2026-04-30 11:56 -4.02848 39.46834 5495 ft 289 kts 281°
2026-04-30 11:56 -4.02264 39.44892 6319 ft 289 kts 284°
2026-04-30 11:57 -4.01741 39.43192 7028 ft 290 kts 283°
2026-04-30 11:57 -4.01146 39.41267 7870 ft 285 kts 284°
2026-04-30 11:57 -4.00578 39.39421 8833 ft 279 kts 285°
2026-04-30 11:57 -3.99889 39.37595 9504 ft 286 kts 297°
2026-04-30 11:58 -3.98614 39.35965 9783 ft 307 kts 314°
2026-04-30 11:58 -3.97054 39.34461 10290 ft 316 kts 315°
2026-04-30 11:58 -3.95412 39.32949 10867 ft 321 kts 317°
2026-04-30 11:58 -3.93766 39.31406 11464 ft 327 kts 313°
2026-04-30 11:59 -3.92339 39.29923 11837 ft 338 kts 313°
2026-04-30 11:59 -3.90661 39.28190 12046 ft 357 kts 314°
2026-04-30 11:59 -3.88919 39.26396 12324 ft 370 kts 314°
2026-04-30 11:59 -3.87106 39.24529 12835 ft 375 kts 314°
2026-04-30 12:00 -3.85288 39.22659 13583 ft 374 kts 314°
2026-04-30 12:00 -3.83461 39.20778 14147 ft 378 kts 314°
2026-04-30 12:00 -3.81619 39.18881 14666 ft 381 kts 314°
2026-04-30 12:00 -3.79763 39.16970 15243 ft 383 kts 314°
2026-04-30 12:01 -3.78106 39.15263 15769 ft 385 kts 314°
2026-04-30 12:01 -3.76229 39.13330 16341 ft 388 kts 314°
2026-04-30 12:01 -3.74341 39.11386 16902 ft 390 kts 314°
2026-04-30 12:01 -3.72462 39.09450 17426 ft 394 kts 314°
2026-04-30 12:02 -3.70547 39.07477 17955 ft 396 kts 313°
2026-04-30 12:02 -3.68621 39.05494 18504 ft 397 kts 313°
2026-04-30 12:02 -3.66682 39.03497 18916 ft 401 kts 314°
2026-04-30 12:02 -3.64721 39.01478 19309 ft 406 kts 314°
2026-04-30 12:03 -3.62966 38.99671 19657 ft 409 kts 314°
2026-04-30 12:03 -3.59005 38.95593 20510 ft 414 kts 314°
2026-04-30 12:03 -3.56984 38.93512 20900 ft 417 kts 314°
2026-04-30 12:04 -3.55182 38.91657 21259 ft 420 kts 314°
2026-04-30 12:04 -3.53136 38.89550 21687 ft 421 kts 314°
2026-04-30 12:04 -3.51087 38.87442 22089 ft 424 kts 314°
2026-04-30 12:04 -3.49016 38.85310 22429 ft 428 kts 314°
2026-04-30 12:05 -3.46967 38.83197 22794 ft 430 kts 314°
2026-04-30 12:05 -3.44874 38.81036 23175 ft 432 kts 314°
2026-04-30 12:05 -3.42772 38.78863 23528 ft 435 kts 314°
2026-04-30 12:05 -3.40659 38.76679 23798 ft 438 kts 314°
2026-04-30 12:06 -3.38529 38.74477 24070 ft 441 kts 314°
2026-04-30 12:06 -3.36389 38.72265 24333 ft 443 kts 314°
2026-04-30 12:06 -3.34234 38.70039 24618 ft 445 kts 314°
2026-04-30 12:06 -3.32104 38.67837 24892 ft 447 kts 314°
2026-04-30 12:07 -3.29931 38.65593 25154 ft 450 kts 314°
2026-04-30 12:07 -3.27749 38.63339 25401 ft 453 kts 314°
2026-04-30 12:07 -3.25548 38.61065 25654 ft 455 kts 314°
2026-04-30 12:07 -3.23344 38.58788 25990 ft 455 kts 314°
2026-04-30 12:08 -3.21128 38.56499 26220 ft 458 kts 314°
2026-04-30 12:08 -3.18936 38.54236 26513 ft 459 kts 314°
2026-04-30 12:08 -3.16704 38.51931 26800 ft 461 kts 314°
2026-04-30 12:08 -3.14471 38.49625 27314 ft 456 kts 314°
2026-04-30 12:09 -3.12302 38.47385 27715 ft 453 kts 314°
2026-04-30 12:09 -3.10121 38.45133 27993 ft 448 kts 314°
2026-04-30 12:09 -3.07934 38.42875 27996 ft 454 kts 314°
2026-04-30 12:10 -3.03526 38.38325 28003 ft 458 kts 314°
2026-04-30 12:10 -2.99075 38.33730 28029 ft 460 kts 314°
2026-04-30 12:11 -2.94639 38.29152 28012 ft 460 kts 314°
2026-04-30 12:11 -2.90174 38.24545 28025 ft 460 kts 314°
2026-04-30 12:12 -2.85970 38.20207 28020 ft 459 kts 314°
2026-04-30 12:12 -2.81557 38.15654 28027 ft 457 kts 314°
2026-04-30 12:13 -2.77138 38.11096 28031 ft 455 kts 314°
2026-04-30 12:13 -2.72717 38.06535 28049 ft 456 kts 314°
2026-04-30 12:14 -2.68288 38.01967 28045 ft 457 kts 314°
2026-04-30 12:14 -2.63850 37.97391 28069 ft 458 kts 314°
2026-04-30 12:15 -2.59438 37.92842 28054 ft 458 kts 314°
2026-04-30 12:15 -2.54999 37.88264 28075 ft 458 kts 314°
2026-04-30 12:16 -2.50837 37.83973 28069 ft 458 kts 314°
2026-04-30 12:16 -2.46402 37.79402 28073 ft 458 kts 314°
2026-04-30 12:17 -2.39745 37.72540 28077 ft 458 kts 314°
2026-04-30 12:17 -2.35297 37.67956 28090 ft 458 kts 314°
2026-04-30 12:18 -2.30863 37.63387 28071 ft 453 kts 314°
2026-04-30 12:18 -2.28723 37.61181 28075 ft 439 kts 314°
2026-04-30 12:18 -2.26618 37.59012 28077 ft 429 kts 314°
2026-04-30 12:19 -2.24570 37.56902 28070 ft 414 kts 314°
2026-04-30 12:19 -2.22594 37.54866 28075 ft 400 kts 314°
2026-04-30 12:19 -2.20681 37.52895 28068 ft 387 kts 314°
2026-04-30 12:19 -2.18858 37.51016 27933 ft 378 kts 314°
2026-04-30 12:20 -2.17041 37.49144 27627 ft 375 kts 314°
2026-04-30 12:20 -2.15209 37.47256 27013 ft 381 kts 314°
2026-04-30 12:20 -2.13348 37.45339 26425 ft 386 kts 314°
2026-04-30 12:20 -2.11463 37.43398 25843 ft 390 kts 314°
2026-04-30 12:21 -2.09566 37.41435 25266 ft 394 kts 313°
2026-04-30 12:21 -2.07695 37.39456 24697 ft 398 kts 313°
2026-04-30 12:21 -2.05795 37.37435 24212 ft 399 kts 313°
2026-04-30 12:21 -2.03914 37.35403 23788 ft 397 kts 309°
2026-04-30 12:22 -2.02503 37.33045 23276 ft 395 kts 294°
2026-04-30 12:22 -2.01373 37.30544 22772 ft 393 kts 294°
2026-04-30 12:22 -2.00253 37.28052 22280 ft 392 kts 294°
2026-04-30 12:22 -1.99130 37.25572 21779 ft 390 kts 294°
2026-04-30 12:23 -1.98020 37.23143 21308 ft 388 kts 294°
2026-04-30 12:23 -1.96892 37.20693 20835 ft 387 kts 295°
2026-04-30 12:23 -1.95765 37.18259 20360 ft 385 kts 295°
2026-04-30 12:23 -1.94624 37.15838 19924 ft 383 kts 297°
2026-04-30 12:24 -1.93216 37.13759 19483 ft 382 kts 310°
2026-04-30 12:24 -1.91339 37.11889 19042 ft 380 kts 320°
2026-04-30 12:24 -1.89226 37.10309 18600 ft 378 kts 323°
2026-04-30 12:24 -1.87097 37.08763 18118 ft 377 kts 323°
2026-04-30 12:25 -1.84979 37.07223 17617 ft 375 kts 323°
2026-04-30 12:25 -1.82898 37.05704 17123 ft 373 kts 323°
2026-04-30 12:25 -1.80812 37.04173 16636 ft 368 kts 323°
2026-04-30 12:25 -1.78762 37.02665 16031 ft 364 kts 323°
2026-04-30 12:26 -1.76735 37.01170 15441 ft 360 kts 323°
2026-04-30 12:26 -1.74727 36.99688 14869 ft 356 kts 323°
2026-04-30 12:26 -1.72750 36.98228 14407 ft 349 kts 323°
2026-04-30 12:26 -1.70813 36.96796 13966 ft 344 kts 324°
2026-04-30 12:27 -1.68898 36.95382 13454 ft 339 kts 324°
2026-04-30 12:27 -1.67018 36.93993 12947 ft 334 kts 324°
2026-04-30 12:27 -1.65184 36.92639 12461 ft 330 kts 324°
2026-04-30 12:27 -1.63348 36.91283 11979 ft 326 kts 324°
2026-04-30 12:28 -1.61534 36.89942 11501 ft 322 kts 324°
2026-04-30 12:28 -1.59740 36.88618 11073 ft 318 kts 324°
2026-04-30 12:28 -1.57974 36.87313 10663 ft 312 kts 324°
2026-04-30 12:28 -1.56239 36.86032 10242 ft 307 kts 324°
2026-04-30 12:29 -1.54528 36.84777 9795 ft 302 kts 327°
2026-04-30 12:29 -1.52630 36.83962 9325 ft 296 kts 350°
2026-04-30 12:29 -1.50599 36.83874 8900 ft 290 kts
2026-04-30 12:29 -1.48592 36.83958 8456 ft 287 kts
2026-04-30 12:30 -1.46915 36.84020 8087 ft 286 kts 359°
2026-04-30 12:30 -1.44921 36.83604 7651 ft 285 kts 342°
2026-04-30 12:30 -1.43065 36.82934 7261 ft 282 kts 340°
2026-04-30 12:30 -1.41270 36.82265 7124 ft 268 kts 341°
2026-04-30 12:31 -1.39527 36.81918 7139 ft 245 kts
2026-04-30 12:31 -1.38115 36.82552 7117 ft 209 kts 52°
2026-04-30 12:31 -1.37581 36.83738 7130 ft 176 kts 84°
2026-04-30 12:31 -1.37327 36.84922 7021 ft 182 kts 69°
2026-04-30 12:32 -1.36704 36.85990 6835 ft 177 kts 64°
2026-04-30 12:32 -1.36090 36.87022 6498 ft 170 kts 60°
2026-04-30 12:32 -1.35430 36.87984 6314 ft 162 kts 57°
2026-04-30 12:32 -1.34772 36.88837 6094 ft 153 kts 53°
2026-04-30 12:33 -1.34345 36.89396 5964 ft 153 kts 55°
2026-04-30 12:33 -1.33578 36.90450 5663 ft 154 kts 59°
2026-04-30 12:33 -1.32975 36.91313 5443 ft 150 kts 57°
2026-04-30 12:33 -1.32396 36.92125 5317 ft 133 kts 57°
2026-04-30 12:34 -1.32008 36.92662 5321 ft 42 kts 54°
2026-04-30 12:34 -1.32003 36.92836 5315 ft 24 kts 144°
2026-04-30 12:34 -1.32133 36.92928 5319 ft 23 kts 144°
2026-04-30 12:34 -1.32253 36.92891 5329 ft 20 kts 235°
2026-04-30 12:35 -1.32321 36.92794 5329 ft 15 kts 234°
2026-04-30 12:35 -1.32383 36.92709 5333 ft 15 kts 233°
2026-04-30 12:35 -1.32443 36.92628 5329 ft 14 kts 235°
2026-04-30 12:35 -1.32500 36.92546 5329 ft 16 kts 235°
2026-04-30 12:36 -1.32565 36.92454 5331 ft 16 kts 234°
2026-04-30 12:36 -1.32620 36.92378 5332 ft 15 kts 231°
2026-04-30 12:36 -1.32711 36.92373 5332 ft 14 kts 148°
2026-04-30 12:36 -1.32759 36.92417 5331 ft 14 kts 118°
2026-04-30 12:37 -1.32764 36.92511 5332 ft 13 kts 101°
2026-04-30 12:37 -1.32789 36.92590 5333 ft 5 kts 169°
2026-04-30 12:37 -1.32816 36.92568 5331 ft 5 kts 238°
2026-04-30 12:37 -1.32835 36.92552 5329 ft 5 kts 208°
2026-04-30 12:38 -1.32852 36.92548 5329 ft 2 kts 192°
2026-04-30 12:38 -1.32861 36.92546 5332 ft 0 kts 193°
2026-04-30 12:38 -1.32860 36.92546 5331 ft 2 kts 193°